Home > Weather > Bariloche > Past weeks

Flag for Argentina Weather for the Past 2 Weeks in Bariloche, Rio Negro, Argentina

Now
41 °F

Passing clouds.


Feels Like: 39 °F
Forecast: 35 / 51 °F
Wind: 3 mph from Southeast

Location: Bariloche Aerodrome

Current Time: May 1, 2016 at 1:24:49 AM

Latest Report: May 1, 2016 at 12:00 AM


Visibility: N/A

Pressure: 29.92 "Hg (26.89 "Hg at 870m altitude)

Humidity: 76%

Dew Point: 34 °F

Location of BarilocheLocation

Historic Weather in Bariloche — Graph

°F

Bariloche Temperature Yesterday

Maximum temperature yesterday: 50 °F (at 4:00 PM)
Minimum temperature yesterday: 34 °F (at 10:00 PM)
Average temperature yesterday: 43 °F

High & Low Weather Summary for the Past Weeks

 TemperatureHumidityPressure
High59 °F (Apr 18, 5:00 PM)93% (Apr 17, 5:00 AM)30.48 "Hg (Apr 17, 5:00 AM)
Low21 °F (Apr 26, 6:00 AM)26% (Apr 26, 4:00 PM)29.50 "Hg (Apr 20, 5:00 AM)
Average41 °F69%30.04 "Hg
* Reported Apr 15 11:00 PM — Apr 30 11:00 PM, Bariloche, Weather by CustomWeather, © 2016

Note: Actual official high and low records may vary slightly from our data, if they occured in-between our weather recording intervals... More about our weather records

Advertising

Bariloche Weather History for the Previous 24 Hours

Scroll right to see more
 ConditionsComfort  
Time TempWeatherWind HumidityBarometerVisibility
11:00 PM
Sat, Apr 30
37 °FPassing clouds.6 mph87%29.92 "HgN/A
10:00 PM34 °FClear.No wind87%29.92 "Hg10 mi
9:00 PM41 °FClear.No wind81%29.92 "Hg10 mi
8:00 PM43 °FPassing clouds.No wind76%29.92 "HgN/A
7:00 PM46 °FPassing clouds.No wind66%29.92 "HgN/A
6:00 PM48 °FPassing clouds.5 mph58%29.92 "HgN/A
5:00 PM50 °FScattered clouds.No wind54%29.95 "HgN/A
4:00 PM50 °FScattered clouds.No wind50%29.95 "HgN/A
3:00 PM48 °FPartly sunny.No wind58%29.98 "HgN/A
2:00 PM46 °FPartly sunny.8 mph62%30.01 "HgN/A
1:00 PM45 °FPartly sunny.No wind61%30.07 "HgN/A
12:00 PM43 °FOvercast.No wind71%30.07 "HgN/A
11:00 AM43 °FScattered clouds.No wind66%30.09 "HgN/A
10:00 AM41 °FOvercast.No wind81%30.09 "HgN/A
9:00 AM39 °FOvercast.3 mph81%30.12 "HgN/A
8:00 AM39 °FOvercast.3 mph81%30.12 "HgN/A
7:00 AM41 °FOvercast.5 mph81%30.12 "HgN/A
6:00 AM41 °FOvercast.5 mph76%30.15 "HgN/A
5:00 AM41 °FPartly cloudy.6 mph76%30.15 "HgN/A
4:00 AM41 °FPartly cloudy.5 mph76%30.18 "HgN/A
3:00 AM41 °FPartly cloudy.6 mph76%30.21 "HgN/A
2:00 AM41 °FPartly cloudy.7 mph76%30.21 "HgN/A
1:00 AM41 °FPartly cloudy.7 mph76%30.24 "HgN/A
Weather by CustomWeather, © 2016

See weather overviewHow to use our weather pages